• In Switzerland
  • List of Countries
  • For 7 days
  • Water Temperature
  • Satellite Maps
  • Weather Map
  • Weather Widgets
  • user-avatar
    Login

    Hourly Weather Serebryanka

    Today, 26 April, Thursday

    Time Temperature Precipitation Wind Pressure Humidity
    00:00 +14°C° 0 mm 3 mps 751 mmHg 71%
    01:00 +14°C° 0 mm 3 mps 751 mmHg 71%
    02:00 +14°C° 0 mm 3 mps 751 mmHg 72%
    03:00 +14°C° 0 mm 4 mps 751 mmHg 72%
    04:00 +14°C° 0.1 mm 4 mps 751 mmHg 72%
    05:00 +14°C° 0.1 mm 4 mps 751 mmHg 73%
    06:00 +14°C° 0.1 mm 5 mps 751 mmHg 74%
    07:00 +16°C° 0.1 mm 5 mps 751 mmHg 68%
    08:00 +19°C° 0.1 mm 6 mps 751 mmHg 63%
    09:00 +21°C° 0 mm 7 mps 751 mmHg 55%
    10:00 +22°C° 0 mm 8 mps 751 mmHg 51%
    11:00 +24°C° 0 mm 8 mps 750 mmHg 48%
    12:00 +26°C° 0 mm 8 mps 750 mmHg 45%
    13:00 +26°C° 0 mm 8 mps 750 mmHg 44%
    14:00 +27°C° 0 mm 8 mps 750 mmHg 44%
    15:00 +27°C° 0 mm 7 mps 749 mmHg 43%
    16:00 +27°C° 0 mm 6 mps 750 mmHg 48%
    17:00 +26°C° 0 mm 5 mps 750 mmHg 52%
    18:00 +25°C° 0 mm 4 mps 750 mmHg 57%
    19:00 +22°C° 0.2 mm 4 mps 751 mmHg 62%
    20:00 +21°C° 0.2 mm 3 mps 751 mmHg 67%
    21:00 +19°C° 0.2 mm 2 mps 751 mmHg 73%
    22:00 +19°C° 0.1 mm 2 mps 752 mmHg 74%
    23:00 +19°C° 0.1 mm 1 mps 752 mmHg 76%

    Tomorrow, 27 April, Friday

    Time Temperature Precipitation Wind Pressure Humidity
    00:00 +18°C° 0.1 mm 1 mps 752 mmHg 77%
    01:00 +18°C° 0.1 mm 1 mps 752 mmHg 78%
    02:00 +16°C° 0.1 mm 1 mps 752 mmHg 80%
    03:00 +16°C° 0.1 mm 2 mps 752 mmHg 81%
    04:00 +15°C° 0.1 mm 2 mps 752 mmHg 82%
    05:00 +15°C° 0.1 mm 2 mps 752 mmHg 84%
    06:00 +15°C° 0.1 mm 2 mps 752 mmHg 85%
    07:00 +17°C° 0.1 mm 3 mps 752 mmHg 78%
    08:00 +19°C° 0.1 mm 3 mps 752 mmHg 71%
    09:00 +21°C° 0.1 mm 4 mps 752 mmHg 65%
    10:00 +22°C° 0 mm 4 mps 752 mmHg 58%
    11:00 +25°C° 0 mm 5 mps 752 mmHg 52%
    12:00 +26°C° 0 mm 6 mps 751 mmHg 46%
    13:00 +26°C° 0.1 mm 6 mps 751 mmHg 44%
    14:00 +27°C° 0.1 mm 6 mps 751 mmHg 42%
    15:00 +27°C° 0.1 mm 6 mps 751 mmHg 40%
    16:00 +26°C° 0.1 mm 6 mps 751 mmHg 46%
    17:00 +23°C° 0.1 mm 6 mps 751 mmHg 52%
    18:00 +22°C° 0.1 mm 5 mps 751 mmHg 59%
    19:00 +19°C° 0.7 mm 5 mps 751 mmHg 68%
    20:00 +15°C° 0.7 mm 5 mps 752 mmHg 78%
    21:00 +12°C° 0.7 mm 5 mps 752 mmHg 87%
    22:00 +10°C° 0.2 mm 5 mps 753 mmHg 87%
    23:00 +9°C° 0.2 mm 5 mps 753 mmHg 88%

    Day after tomorrow, 28 April, Saturday

    Time Temperature Precipitation Wind Pressure Humidity
    00:00 +9°C° 0.2 mm 5 mps 754 mmHg 88%
    01:00 +8°C° 0 mm 4 mps 754 mmHg 89%
    02:00 +8°C° 0 mm 4 mps 754 mmHg 89%
    03:00 +8°C° 0 mm 3 mps 755 mmHg 90%
    04:00 +8°C° 0 mm 3 mps 755 mmHg 91%
    05:00 +8°C° 0 mm 3 mps 756 mmHg 91%
    06:00 +8°C° 0 mm 2 mps 756 mmHg 92%
    07:00 +10°C° 0 mm 3 mps 756 mmHg 84%
    08:00 +12°C° 0 mm 3 mps 757 mmHg 77%
    09:00 +13°C° 0 mm 3 mps 757 mmHg 69%
    10:00 +16°C° 0 mm 3 mps 757 mmHg 61%
    11:00 +17°C° 0 mm 3 mps 758 mmHg 54%
    12:00 +19°C° 0 mm 4 mps 758 mmHg 46%
    13:00 +19°C° 0 mm 4 mps 758 mmHg 43%
    14:00 +20°C° 0 mm 4 mps 758 mmHg 41%
    15:00 +20°C° 0 mm 4 mps 758 mmHg 38%
    16:00 +20°C° 0 mm 4 mps 758 mmHg 40%
    17:00 +19°C° 0 mm 3 mps 758 mmHg 42%
    18:00 +19°C° 0 mm 3 mps 758 mmHg 44%
    19:00 +17°C° 0 mm 2 mps 759 mmHg 48%
    20:00 +16°C° 0 mm 2 mps 759 mmHg 52%
    21:00 +14°C° 0 mm 1 mps 760 mmHg 57%
    22:00 +14°C° 0 mm 1 mps 760 mmHg 59%
    23:00 +13°C° 0 mm 1 mps 760 mmHg 60%

    29 April, Sunday

    Time Temperature Precipitation Wind Pressure Humidity
    00:00 +13°C° 0 mm 1 mps 761 mmHg 62%
    01:00 +12°C° 0 mm 1 mps 761 mmHg 64%
    02:00 +12°C° 0 mm 1 mps 761 mmHg 65%
    03:00 +11°C° 0 mm 1 mps 761 mmHg 66%
    04:00 +11°C° 0 mm 1 mps 761 mmHg 67%
    05:00 +11°C° 0 mm 1 mps 761 mmHg 68%
    06:00 +11°C° 0 mm 1 mps 762 mmHg 69%
    07:00 +13°C° 0 mm 1 mps 762 mmHg 63%
    08:00 +15°C° 0 mm 1 mps 762 mmHg 57%
    09:00 +18°C° 0 mm 1 mps 762 mmHg 50%
    10:00 +19°C° 0 mm 1 mps 762 mmHg 46%
    11:00 +21°C° 0 mm 1 mps 762 mmHg 42%
    12:00 +22°C° 0 mm 1 mps 762 mmHg 38%
    13:00 +22°C° 0 mm 1 mps 762 mmHg 36%
    14:00 +23°C° 0 mm 1 mps 761 mmHg 35%
    15:00 +23°C° 0 mm 1 mps 761 mmHg 34%
    16:00 +23°C° 0 mm 1 mps 761 mmHg 35%
    17:00 +23°C° 0 mm 1 mps 760 mmHg 37%
    18:00 +22°C° 0 mm 1 mps 760 mmHg 38%
    19:00 +21°C° 0 mm 1 mps 760 mmHg 42%
    20:00 +18°C° 0 mm 2 mps 761 mmHg 45%
    21:00 +17°C° 0 mm 2 mps 761 mmHg 49%
    22:00 +16°C° 0 mm 2 mps 761 mmHg 51%
    23:00 +15°C° 0 mm 2 mps 761 mmHg 53%

    30 April, Monday

    Time Temperature Precipitation Wind Pressure Humidity
    00:00 +15°C° 0 mm 2 mps 761 mmHg 54%
    01:00 +14°C° 0 mm 2 mps 761 mmHg 56%
    02:00 +14°C° 0 mm 2 mps 761 mmHg 57%
    03:00 +14°C° 0 mm 2 mps 761 mmHg 59%
    04:00 +13°C° 0 mm 2 mps 761 mmHg 61%
    05:00 +13°C° 0 mm 1 mps 761 mmHg 62%
    06:00 +13°C° 0 mm 1 mps 760 mmHg 64%
    07:00 +15°C° 0 mm 2 mps 761 mmHg 58%
    08:00 +17°C° 0 mm 2 mps 761 mmHg 52%
    09:00 +19°C° 0 mm 3 mps 761 mmHg 46%
    10:00 +21°C° 0 mm 3 mps 760 mmHg 43%
    11:00 +22°C° 0 mm 3 mps 760 mmHg 39%
    12:00 +24°C° 0 mm 3 mps 760 mmHg 36%
    13:00 +24°C° 0 mm 3 mps 760 mmHg 34%
    14:00 +25°C° 0 mm 3 mps 759 mmHg 33%
    15:00 +25°C° 0 mm 3 mps 759 mmHg 32%
    16:00 +25°C° 0 mm 3 mps 759 mmHg 35%
    17:00 +25°C° 0 mm 2 mps 758 mmHg 38%
    18:00 +25°C° 0 mm 2 mps 758 mmHg 41%
    19:00 +23°C° 0 mm 2 mps 758 mmHg 44%
    20:00 +20°C° 0 mm 2 mps 758 mmHg 48%
    21:00 +18°C° 0 mm 2 mps 758 mmHg 51%
    22:00 +17°C° 0 mm 2 mps 758 mmHg 53%
    23:00 +17°C° 0 mm 2 mps 758 mmHg 56%

    1 May, Tuesday

    Time Temperature Precipitation Wind Pressure Humidity
    00:00 +16°C° 0 mm 2 mps 758 mmHg 58%
    01:00 +15°C° 0 mm 2 mps 758 mmHg 60%
    02:00 +15°C° 0 mm 2 mps 758 mmHg 62%
    03:00 +15°C° 0 mm 1 mps 758 mmHg 64%
    04:00 +14°C° 0 mm 2 mps 758 mmHg 66%
    05:00 +14°C° 0 mm 2 mps 758 mmHg 67%
    06:00 +14°C° 0 mm 2 mps 758 mmHg 68%
    07:00 +16°C° 0 mm 2 mps 758 mmHg 61%
    08:00 +18°C° 0 mm 3 mps 759 mmHg 53%
    09:00 +20°C° 0 mm 4 mps 759 mmHg 45%
    10:00 +22°C° 0 mm 4 mps 759 mmHg 41%
    11:00 +23°C° 0 mm 4 mps 758 mmHg 36%
    12:00 +25°C° 0 mm 5 mps 758 mmHg 32%
    13:00 +26°C° 0 mm 5 mps 758 mmHg 31%
    14:00 +26°C° 0 mm 5 mps 758 mmHg 30%
    15:00 +27°C° 0 mm 5 mps 758 mmHg 29%
    16:00 +26°C° 0 mm 4 mps 758 mmHg 33%
    17:00 +26°C° 0 mm 4 mps 757 mmHg 36%
    18:00 +25°C° 0 mm 3 mps 757 mmHg 40%
    19:00 +22°C° 0 mm 3 mps 757 mmHg 43%
    20:00 +20°C° 0 mm 3 mps 758 mmHg 46%
    21:00 +18°C° 0 mm 3 mps 758 mmHg 48%
    22:00 +17°C° 0 mm 3 mps 758 mmHg 50%
    23:00 +17°C° 0 mm 2 mps 758 mmHg 52%
    Show more